Terminal Aerodrome Forecast
Issued by NWS

Home | Current Version | Previous Version | Text Only | Print | Product List | Glossary On
Versions: 1 2 3 4 5 6 7 8 9 10 11 12 13 14 15 16 17 18 19 20 21 22 23 24 25 26 27 28 29 30 31 32 33 34
247
FTUS43 KDLH 171603 AAC
TAFHIB
TAF AMD
KHIB 171603Z 1716/1812 00000KT 1/4SM FZFG VV002
     FM171700 VRB02KT 3/4SM BR OVC002
     FM171800 22004KT P6SM SKC
     FM180000 21005KT P6SM SCT110
     FM180500 21005KT P6SM SCT110 WS020/25035KT
     FM181000 21007KT P6SM FEW110=

USA.gov is the U.S. government's official web portal to all federal, state and local government web resources and services.